Location: Krasnoyarskiy Pitomnik
(51.1333°N, 71.6167°E)
Time: 08:30:01
(UTC+00:00)

NOSS 8 (F) - Pass Details

Date: 22 October 2021
Orbit: 374 x 1788 km, 63.3° (Epoch: 06 December)

Event Time Altitude Azimuth Distance (km) Brightness Sun altitude
Rises 13:57:09 0° 218° (SW) 2,532 8.7 -18.0°
Reaches altitude 10° 13:59:25 10° 217° (SW) 1,536 7.5 -18.4°
Enters shadow 14:02:32 71° 158° (SSE) 419 4.0 -18.9°
